Weather Roundup
Issued by NWS Chicago, IL

Home | Current Version | Previous Version | Graphics & Text | Print | Product List | Glossary On
Versions: 1 2 3 4 5 6 7 8 9 10 11 12 13 14 15 16 17 18 19 20 21 22 23 24 25 26 27 28 29 30 31 32 33 34 35 36 37 38 39 40 41 42 43 44 45 46 47 48 49 50
000
NZUS59 KLOT 260600
HRRLOT

CHICAGO AREA WEATHER ROUNDUP
NATIONAL WEATHER SERVICE CHICAGO/ROMEOVILLE IL
100 AM CDT SAT JUL 26 2014

NOTE: "FAIR" INDICATES FEW OR NO CLOUDS BELOW 12,000 FEET WITH NO
SIGNIFICANT WEATHER AND/OR OBSTRUCTIONS TO VISIBILITY.

* THESE STATIONS ARE NOT UNDER NWS QUALITY CONTROL. THEY ALSO MAY NOT
  REPORT WEATHER SUCH AS PRECIPITATION OR FOG.

ILZ005-006-012>014-019>023-260700-
NORTHEAST ILLINOIS

CITY           SKY/WX    TMP DP  RH WIND       PRES   REMARKS
OHARE          CLOUDY    70  56  61 SW10      29.91F
6HR MIN TEMP:  69; 6HR MAX TEMP:  72;

MIDWAY         CLOUDY    72  60  66 SW8       29.91F
6HR MIN TEMP:  71; 6HR MAX TEMP:  75;

AURORA         CLOUDY    68  59  73 S5        29.92F
6HR MIN TEMP:  68; 6HR MAX TEMP:  71;

WAUKEGAN       PTCLDY    67  58  72 S9        29.90F
6HR MIN TEMP:  63; 6HR MAX TEMP:  71;

DUPAGE AIRPORT CLOUDY    68  59  73 S8        29.91F
6HR MIN TEMP:  68; 6HR MAX TEMP:  71;

WHEELING       CLEAR     69  59  70 S6        29.93S
6HR MIN TEMP:  69; 6HR MAX TEMP:  74;

NORTHERLY IS     N/A     70  57  63 S10         N/A
$$

WIZ051-052-058>065-066-070>072-260700-
SOUTHEAST WISCONSIN

CITY           SKY/WX    TMP DP  RH WIND       PRES   REMARKS
MILWAUKEE      PTCLDY    66  59  78 SW7       29.90S
6HR MIN TEMP:  66; 6HR MAX TEMP:  73;

KENOSHA*       CLEAR     65  60  84 SW5       29.91F
RACINE*        CLEAR     65  59  81 SW5       29.92S
$$

INZ001>003-010>013-019-020-260700-
NORTHWEST INDIANA

CITY           SKY/WX    TMP DP  RH WIND       PRES   REMARKS
GARY*          NOT AVBL
MICHIGAN CITY* NOT AVBL
RENSSELAER*    NOT AVBL
VALPARAISO     CLOUDY    65  59  81 CALM      29.94F
$$

LMZ740>746-260700-
SOUTHERN LAKE MICHIGAN

STATION/POSITION TIME  SKY/WX   TEMP WIND        PRES    VSBY
                                AIR  DIR/SP/G
                 (UTC)          (F)  (DEG/KT/KT) (MB)    (MI)
HARRISON CRIB    0500            69  190/ 11/ 12   N/A
BURNHAM HARBOR   0600            71  230/  9/  9   N/A
CALUMET HARBOR   0500            70  200/  6/  8 1012.2F
BURNS HARBOR     NOT AVBL
MICHIGAN CITY    0500            65  100/  4/  5   N/A
$$

ABBREVIATIONS USED IN REMARKS
   TC - TEMPERATURE IN CELSIUS
  WCI - WIND CHILL INDEX
   HX - HEAT INDEX
  VSB - VISIBILITY
$$


USA.gov is the U.S. government's official web portal to all federal, state and local government web resources and services.